EW5171 Weather Reports


Display with metric or nautical units.
time (UTC)temp
F
wind
direction
speed
MPH
gust
MPH
rain 1hr
in
rain 24hr
in
rain mn
in
humidity
%
barometer
mb
20260831195502 57 172 0.0 0.0 0.00 0.15 0.11 94 1007.0
20260831195003 57 172 0.0 0.0 0.00 0.15 0.11 94 1007.1
20260831194503 57 172 0.0 0.0 0.00 0.15 0.11 93 1007.0
20260831194002 57 172 0.0 0.0 0.00 0.15 0.11 93 1007.1
20260831193503 58 172 0.0 0.0 0.00 0.15 0.11 93 1007.0
20260831193001 58 172 0.0 0.0 0.00 0.15 0.11 93 1006.9
20260831192501 58 172 0.0 0.0 0.00 0.15 0.11 93 1006.9
20260831192001 58 172 0.0 0.0 0.00 0.15 0.11 93 1006.8
20260831191501 59 172 0.0 0.0 0.00 0.15 0.11 93 1006.8
20260831191001 59 172 0.0 0.0 0.00 0.15 0.11 93 1006.7
20260831190501 59 172 0.0 0.0 0.00 0.15 0.11 93 1006.8
20260831190001 59 172 0.0 0.0 0.00 0.15 0.11 93 1006.8
20260831185601 59 172 0.0 0.0 0.00 0.17 0.11 93 1006.7
20260831185104 60 172 0.0 1.0 0.00 0.17 0.11 92 1006.6
20260831184601 60 172 0.0 1.0 0.00 0.17 0.11 92 1006.6
20260831184104 60 172 0.0 0.0 0.00 0.17 0.11 92 1006.5
20260831183600 60 172 0.0 1.0 0.00 0.17 0.11 92 1006.5
20260831183108 61 172 0.0 1.0 0.00 0.17 0.11 92 1006.4
20260831182600 61 172 0.0 1.0 0.00 0.17 0.11 91 1006.4
20260831182102 61 172 0.0 1.0 0.00 0.17 0.11 91 1006.4
20260831181607 61 172 0.0 1.0 0.00 0.17 0.11 91 1006.4
20260831181059 62 172 0.0 1.0 0.00 0.17 0.11 91 1006.2
20260831180558 62 172 0.0 1.0 0.00 0.17 0.11 91 1006.2
20260831180113 62 172 0.0 2.0 0.00 0.17 0.11 91 1006.2
20260831175558 62 172 0.0 2.0 0.00 0.18 0.11 91 1006.1
20260831175103 63 172 0.0 2.0 0.00 0.18 0.11 91 1006.2
20260831174558 63 250 0.0 2.0 0.00 0.18 0.11 90 1006.1
20260831174058 63 250 0.0 2.0 0.00 0.18 0.11 90 1006.1
20260831173558 63 250 0.0 3.0 0.00 0.18 0.11 90 1006.1
20260831173058 63 250 0.0 4.0 0.00 0.18 0.11 90 1006.0
20260831172557 63 262 1.0 4.0 0.00 0.18 0.11 89 1006.1
20260831172057 63 158 0.0 3.0 0.00 0.18 0.11 89 1006.0
20260831171557 63 208 1.0 3.0 0.00 0.18 0.11 89 1006.0
20260831171058 63 183 1.0 4.0 0.00 0.18 0.11 89 1005.9
20260831170558 63 229 0.0 5.0 0.00 0.18 0.11 88 1005.8
20260831170058 64 202 1.0 5.0 0.00 0.18 0.11 88 1005.9
20260831165556 64 200 1.0 8.0 0.00 0.20 0.11 88 1005.9
20260831165057 64 167 1.0 8.0 0.01 0.20 0.11 88 1005.9
20260831164557 64 200 3.0 8.0 0.01 0.20 0.11 88 1005.9
20260831164059 64 158 3.0 7.0 0.01 0.20 0.11 88 1005.8
20260831163556 64 275 2.0 9.0 0.01 0.20 0.11 89 1005.8
20260831163056 64 121 4.0 9.0 0.01 0.20 0.11 89 1005.9
20260831162557 64 288 2.0 8.0 0.01 0.20 0.11 90 1005.9
20260831162056 64 224 3.0 8.0 0.01 0.20 0.11 90 1005.9
20260831161555 63 225 3.0 9.0 0.01 0.20 0.11 90 1005.9
20260831161055 63 164 1.0 6.0 0.01 0.20 0.11 90 1005.9
20260831160555 63 216 2.0 6.0 0.01 0.20 0.11 90 1005.8
20260831160054 63 201 1.0 8.0 0.01 0.20 0.11 90 1005.8
20260831155556 63 234 3.0 8.0 0.00 0.20 0.10 89 1005.8
20260831155054 63 286 2.0 7.0 0.00 0.20 0.10 89 1005.8
20260831154557 63 205 1.0 11.0 0.00 0.20 0.10 89 1005.7
20260831154053 63 162 3.0 11.0 0.00 0.20 0.10 89 1005.8
20260831153554 64 196 3.0 10.0 0.00 0.20 0.10 89 1005.7
20260831153058 64 204 1.0 9.0 0.00 0.20 0.10 89 1005.8
20260831152554 64 246 1.0 8.0 0.00 0.20 0.10 89 1005.7
20260831152052 64 216 1.0 8.0 0.01 0.20 0.10 88 1005.6
20260831151604 64 188 2.0 10.0 0.01 0.20 0.10 88 1005.6
20260831151050 64 210 4.0 10.0 0.01 0.20 0.10 89 1005.7
20260831150554 64 192 3.0 8.0 0.01 0.20 0.10 91 1005.7
20260831150051 63 157 3.0 9.0 0.01 0.20 0.10 91 1005.7
20260831145550 63 207 2.0 9.0 0.01 0.21 0.10 90 1005.7
20260831145050 63 299 3.0 9.0 0.01 0.21 0.10 90 1005.7
20260831144550 63 175 2.0 9.0 0.01 0.21 0.10 90 1005.8
20260831144053 63 204 2.0 10.0 0.01 0.21 0.10 90 1005.7
20260831143550 63 227 2.0 10.0 0.01 0.21 0.10 90 1005.7
20260831143050 63 219 2.0 7.0 0.01 0.21 0.10 90 1005.7
20260831142550 63 263 2.0 10.0 0.01 0.21 0.10 90 1005.7
20260831142049 63 192 3.0 11.0 0.00 0.20 0.09 90 1005.8
20260831141549 63 243 3.0 7.0 0.00 0.20 0.09 91 1005.8
20260831141049 63 186 2.0 6.0 0.00 0.20 0.09 92 1005.8
20260831140552 63 175 3.0 6.0 0.00 0.20 0.09 92 1005.8
20260831140055 63 178 1.0 7.0 0.00 0.20 0.09 92 1005.9
20260831135548 63 184 2.0 7.0 0.00 0.22 0.09 92 1005.8
20260831135051 63 117 3.0 7.0 0.00 0.22 0.09 92 1005.8
20260831134548 63 173 3.0 9.0 0.00 0.22 0.09 92 1005.8
20260831134047 63 172 5.0 9.0 0.00 0.22 0.09 93 1005.8
20260831133547 63 167 2.0 8.0 0.00 0.22 0.09 93 1005.8
20260831133049 63 126 3.0 7.0 0.00 0.22 0.09 94 1005.7
20260831132547 63 150 3.0 6.0 0.00 0.22 0.09 94 1005.7
20260831132047 63 209 2.0 7.0 0.00 0.22 0.09 95 1005.7
20260831131545 63 169 2.0 7.0 0.00 0.22 0.09 95 1005.7
20260831131045 63 207 3.0 5.0 0.00 0.22 0.09 96 1005.7
20260831130545 62 173 2.0 5.0 0.00 0.22 0.09 96 1005.7
20260831130049 62 130 1.0 5.0 0.00 0.22 0.09 96 1005.7
20260831125545 61 253 1.0 4.0 0.00 0.23 0.09 96 1005.7
20260831125045 61 170 1.0 5.0 0.00 0.23 0.09 96 1005.8
20260831124551 60 216 1.0 3.0 0.00 0.23 0.09 96 1005.9
20260831124045 60 176 1.0 3.0 0.00 0.23 0.09 95 1005.9
20260831123545 60 186 0.0 3.0 0.00 0.23 0.09 95 1006.0
20260831123045 60 219 0.0 2.0 0.00 0.23 0.09 95 1006.0
20260831122547 60 219 0.0 2.0 0.00 0.23 0.09 95 1005.9
20260831122045 59 219 0.0 2.0 0.00 0.23 0.09 96 1005.9
20260831121546 59 219 0.0 3.0 0.01 0.23 0.09 95 1006.0
20260831121044 59 182 0.0 3.0 0.01 0.23 0.09 95 1006.0
20260831120543 59 182 1.0 3.0 0.01 0.23 0.09 94 1006.0
20260831120044 59 212 0.0 3.0 0.01 0.23 0.09 94 1006.0
20260831115544 59 213 1.0 3.0 0.01 0.24 0.09 94 1006.0
20260831115043 59 212 0.0 3.0 0.01 0.24 0.09 94 1006.0
20260831114544 59 212 0.0 3.0 0.01 0.24 0.09 94 1006.0
20260831114043 59 213 1.0 3.0 0.01 0.24 0.09 94 1006.0
20260831113543 59 261 1.0 3.0 0.01 0.24 0.09 93 1005.9
20260831113044 60 194 1.0 6.0 0.01 0.24 0.09 93 1005.9
20260831112542 60 200 2.0 6.0 0.01 0.24 0.09 93 1006.0
20260831112047 61 178 0.0 4.0 0.01 0.24 0.09 93 1005.7
20260831111543 61 215 1.0 12.0 0.00 0.24 0.09 92 1005.5
20260831111041 62 165 4.0 12.0 0.01 0.24 0.09 92 1005.7
20260831110541 63 210 6.0 12.0 0.01 0.24 0.09 92 1005.8
20260831110045 64 190 4.0 10.0 0.01 0.24 0.09 93 1005.8
20260831105541 64 190 4.0 8.0 0.01 0.26 0.09 92 1005.8
20260831105041 64 218 3.0 6.0 0.01 0.26 0.09 92 1005.8
20260831104558 65 147 2.0 9.0 0.01 0.26 0.09 92 1005.7
20260831104040 65 188 3.0 9.0 0.01 0.26 0.09 92 1005.7
20260831103543 65 136 3.0 10.0 0.01 0.26 0.09 91 1005.7
20260831103039 65 194 4.0 10.0 0.01 0.26 0.09 90 1005.7
20260831102538 66 158 2.0 8.0 0.01 0.26 0.09 92 1005.8
20260831102037 65 149 4.0 11.0 0.01 0.26 0.09 92 1005.9
20260831101536 65 180 4.0 11.0 0.01 0.26 0.09 92 1005.9
20260831101035 65 182 3.0 11.0 0.00 0.25 0.08 93 1006.0
20260831100534 64 203 5.0 11.0 0.00 0.25 0.08 94 1005.9
20260831100038 64 186 4.0 11.0 0.00 0.25 0.08 94 1006.0
20260831095532 64 187 3.0 9.0 0.00 0.28 0.08 94 1006.0
20260831095031 64 197 3.0 7.0 0.00 0.28 0.08 95 1006.0
20260831094538 64 196 2.0 12.0 0.00 0.28 0.08 96 1006.1
20260831094029 63 95 3.0 11.0 0.00 0.28 0.08 96 1006.1
20260831093528 63 196 6.0 11.0 0.00 0.28 0.08 95 1006.3
20260831093032 63 204 4.0 7.0 0.00 0.28 0.08 95 1006.2
20260831092526 63 141 2.0 10.0 0.01 0.28 0.08 95 1006.2
20260831092027 63 178 4.0 9.0 0.01 0.28 0.08 95 1006.3
20260831091525 63 188 3.0 10.0 0.01 0.28 0.08 96 1006.3
20260831091024 63 174 3.0 10.0 0.01 0.28 0.08 96 1006.5
20260831090524 63 203 4.0 10.0 0.01 0.28 0.08 96 1006.5
20260831090023 63 162 3.0 8.0 0.01 0.28 0.08 97 1006.6
20260831085523 62 138 3.0 8.0 0.01 0.30 0.08 96 1006.6
20260831085021 62 153 2.0 6.0 0.01 0.30 0.08 96 1006.7
20260831084533 62 131 2.0 10.0 0.01 0.30 0.08 96 1006.6
20260831084020 61 186 3.0 10.0 0.01 0.30 0.08 96 1006.7
20260831083520 61 202 2.0 9.0 0.01 0.30 0.08 96 1006.7
20260831083035 61 192 2.0 6.0 0.00 0.28 0.07 96 1006.7
20260831082518 61 155 1.0 9.0 0.00 0.28 0.07 95 1006.7
20260831082018 62 188 3.0 10.0 0.00 0.28 0.07 95 1006.8
20260831081517 62 178 2.0 9.0 0.00 0.28 0.07 95 1006.7
20260831081019 62 219 4.0 10.0 0.00 0.28 0.07 95 1006.8
20260831080516 62 198 3.0 10.0 0.00 0.28 0.07 95 1006.8
20260831080026 62 196 3.0 7.0 0.01 0.28 0.07 95 1006.9
20260831075516 62 192 3.0 7.0 0.01 0.31 0.07 95 1006.9
20260831075016 62 187 4.0 7.0 0.01 0.31 0.07 95 1006.9
20260831074517 62 179 2.0 8.0 0.01 0.31 0.07 95 1007.0
20260831074017 62 216 3.0 9.0 0.01 0.31 0.07 95 1006.9
20260831073515 62 178 3.0 9.0 0.01 0.31 0.07 95 1006.9
20260831073019 62 194 2.0 8.0 0.01 0.31 0.07 96 1006.8
20260831072513 62 200 3.0 8.0 0.01 0.31 0.07 96 1007.0
20260831072013 62 182 2.0 7.0 0.01 0.31 0.07 96 1007.0
20260831071512 61 178 1.0 5.0 0.01 0.31 0.07 97 1007.0
20260831071011 61 188 2.0 5.0 0.01 0.31 0.07 96 1007.1
20260831070510 61 186 2.0 5.0 0.01 0.31 0.07 97 1007.0
20260831070011 61 273 1.0 5.0 0.00 0.30 0.06 97 1007.0
20260831065510 61 173 2.0 5.0 0.00 0.31 0.06 97 1007.0
20260831065011 61 177 1.0 5.0 0.00 0.31 0.06 97 1007.1
20260831064509 61 169 0.0 3.0 0.00 0.31 0.06 97 1007.0
20260831064009 61 213 1.0 6.0 0.00 0.31 0.06 97 1007.1
20260831063508 61 186 2.0 6.0 0.00 0.31 0.06 97 1007.1
20260831063008 60 198 2.0 6.0 0.00 0.31 0.06 98 1007.2
20260831062507 60 205 1.0 7.0 0.00 0.31 0.06 97 1007.1
20260831062009 60 200 2.0 4.0 0.01 0.31 0.06 98 1007.2
20260831061504 60 202 0.0 3.0 0.01 0.31 0.06 98 1007.2
20260831061004 60 202 1.0 4.0 0.01 0.31 0.06 98 1007.3
20260831060502 59 202 1.0 4.0 0.01 0.31 0.06 98 1007.3
20260831055559 59 196 0.0 3.0 0.01 0.31 0.06 98 1007.2
20260831055058 58 196 0.0 3.0 0.01 0.31 0.06 98 1007.3
20260831054558 57 227 0.0 1.0 0.01 0.31 0.06 98 1007.3
20260831054055 56 227 0.0 0.0 0.01 0.31 0.06 98 1007.3
20260831053557 55 227 0.0 0.0 0.01 0.31 0.06 97 1007.3
20260831053053 55 227 0.0 0.0 0.01 0.31 0.06 97 1007.4
20260831052553 55 227 0.0 0.0 0.01 0.31 0.06 97 1007.4
20260831052051 55 227 0.0 0.0 0.00 0.31 0.06 97 1007.4
20260831051554 55 227 0.0 0.0 0.01 0.31 0.06 97 1007.5
20260831051050 55 227 0.0 0.0 0.01 0.31 0.06 97 1007.5
20260831050549 55 227 0.0 0.0 0.01 0.31 0.06 97 1007.5
20260831050049 55 227 0.0 0.0 0.01 0.31 0.06 97 1007.6
20260831045548 55 227 0.0 0.0 0.01 0.31 0.06 97 1007.6
20260831045048 55 227 0.0 1.0 0.01 0.31 0.06 97 1007.6
20260831044554 55 227 0.0 1.0 0.01 0.31 0.06 97 1007.6
20260831044047 55 227 0.0 0.0 0.01 0.31 0.06 97 1007.6
20260831043546 55 227 0.0 0.0 0.01 0.31 0.06 97 1007.5
20260831043046 55 227 0.0 0.0 0.01 0.31 0.06 97 1007.5
20260831042549 55 227 0.0 0.0 0.01 0.31 0.06 97 1007.5
20260831042045 55 227 0.0 0.0 0.01 0.31 0.06 97 1007.6
20260831041551 55 227 0.0 0.0 0.00 0.30 0.05 96 1007.6
20260831041048 55 227 0.0 0.0 0.00 0.30 0.05 96 1007.6
20260831040544 55 227 0.0 0.0 0.00 0.30 0.05 96 1007.6
20260831040043 55 227 0.0 0.0 0.00 0.30 0.05 96 1007.6
20260831035546 55 227 0.0 0.0 0.00 0.30 0.05 96 1007.6
20260831035042 55 227 0.0 0.0 0.00 0.30 0.05 96 1007.6
20260831034542 55 227 0.0 0.0 0.00 0.30 0.05 96 1007.6
20260831034042 55 227 0.0 0.0 0.01 0.30 0.05 96 1007.7
20260831033542 56 227 0.0 0.0 0.01 0.30 0.05 96 1007.7
20260831033042 56 227 0.0 0.0 0.01 0.30 0.05 96 1007.7
20260831032541 56 227 0.0 0.0 0.01 0.30 0.05 96 1007.7
20260831032040 56 227 0.0 0.0 0.01 0.30 0.05 96 1007.7
20260831031540 56 227 0.0 0.0 0.01 0.30 0.05 97 1007.7
20260831031043 56 227 0.0 1.0 0.01 0.30 0.05 97 1007.8
20260831030541 56 227 0.0 0.0 0.01 0.30 0.05 97 1007.8
20260831030039 56 227 0.0 2.0 0.02 0.30 0.05 97 1007.9
20260831025538 56 227 0.0 2.0 0.02 0.30 0.05 96 1008.0
20260831025038 56 227 0.0 0.0 0.02 0.30 0.05 96 1008.0
20260831024541 56 227 0.0 0.0 0.02 0.30 0.05 96 1007.9
20260831024038 56 227 0.0 0.0 0.01 0.28 0.04 96 1008.0
20260831023537 56 227 0.0 0.0 0.01 0.28 0.04 96 1007.9
20260831023138 56 227 0.0 0.0 0.01 0.28 0.04 96 1007.9
20260831022537 56 227 0.0 0.0 0.01 0.28 0.04 96 1007.9
20260831022036 56 227 0.0 1.0 0.01 0.28 0.04 96 1007.9
20260831021539 57 227 0.0 1.0 0.01 0.28 0.04 96 1007.9
20260831021038 57 227 0.0 0.0 0.01 0.28 0.04 96 1008.0
20260831020535 57 227 0.0 1.0 0.01 0.28 0.04 96 1008.0
20260831020035 57 227 0.0 2.0 0.00 0.28 0.03 96 1008.1
20260831015534 57 227 0.0 2.0 0.01 0.28 0.03 96 1008.1
20260831015034 57 227 0.0 2.0 0.01 0.28 0.03 96 1008.1
20260831014545 57 227 0.0 2.0 0.01 0.28 0.03 96 1008.1
20260831014033 58 227 0.0 1.0 0.01 0.28 0.03 96 1008.1
20260831013533 58 298 0.0 1.0 0.01 0.28 0.03 96 1008.1
20260831013040 58 298 0.0 1.0 0.01 0.28 0.03 96 1008.2
20260831012533 58 298 0.0 3.0 0.01 0.28 0.03 96 1008.1
20260831012033 58 298 0.0 3.0 0.01 0.28 0.03 96 1008.2
20260831011535 58 238 0.0 3.0 0.01 0.28 0.03 96 1008.2
20260831011032 58 199 0.0 3.0 0.01 0.28 0.03 96 1008.2
20260831010531 58 196 0.0 3.0 0.01 0.28 0.03 96 1008.3
20260831010031 58 190 0.0 3.0 0.01 0.28 0.03 96 1008.3
20260831005531 58 244 0.0 2.0 0.00 0.28 0.02 97 1008.2
20260831005033 58 234 0.0 3.0 0.01 0.28 0.02 97 1008.2
20260831004530 58 240 0.0 3.0 0.01 0.28 0.02 96 1008.2
20260831004033 57 239 0.0 2.0 0.01 0.28 0.02 96 1008.3
20260831003529 57 239 0.0 3.0 0.01 0.28 0.02 96 1008.2
20260831003028 57 239 0.0 3.0 0.01 0.28 0.02 96 1008.3
20260831002528 57 239 0.0 1.0 0.01 0.28 0.02 96 1008.3
20260831002027 57 239 0.0 1.0 0.01 0.28 0.02 96 1008.2
20260831001527 57 239 0.0 1.0 0.01 0.28 0.02 96 1008.2
20260831001028 57 239 0.0 2.0 0.01 0.28 0.02 96 1008.2
20260831000526 57 239 0.0 2.0 0.01 0.28 0.02 96 1008.1
20260831000036 56 239 0.0 1.0 0.01 0.28 0.02 96 1008.1
20260830235524 56 239 0.0 1.0 0.01 0.28 0.02 96 1008.1
20260830235023 56 239 0.0 1.0 0.00 0.27 0.02 96 1008.1
20260830234523 56 239 0.0 2.0 0.01 0.27 0.02 96 1008.1
20260830234024 56 239 0.0 2.0 0.01 0.27 0.02 96 1008.1
20260830233526 56 239 0.0 3.0 0.01 0.27 0.02 96 1008.2
20260830233029 56 239 0.0 3.0 0.01 0.27 0.02 96 1008.3
20260830232522 56 291 0.0 0.0 0.01 0.27 0.02 96 1008.3
20260830232122 56 291 0.0 1.0 0.02 0.27 0.02 96 1008.2
20260830231524 55 291 0.0 2.0 0.02 0.27 0.02 95 1008.1
20260830231021 55 291 0.0 2.0 0.02 0.27 0.02 95 1008.2
20260830230519 55 291 0.0 1.0 0.02 0.27 0.02 95 1008.2
20260830230019 55 291 0.0 1.0 0.02 0.27 0.02 95 1008.1
20260830225519 55 291 0.0 0.0 0.02 0.27 0.02 95 1008.2
20260830225019 55 291 0.0 0.0 0.02 0.27 0.02 95 1008.2
20260830224519 55 291 0.0 1.0 0.01 0.26 0.01 95 1008.2
20260830224018 55 291 0.0 1.0 0.01 0.26 0.01 95 1008.1
20260830223518 55 291 0.0 1.0 0.02 0.26 0.01 95 1008.2
20260830223018 55 291 0.0 1.0 0.02 0.26 0.01 95 1008.3
20260830222517 55 291 0.0 1.0 0.01 0.25 0.00 95 1008.2
20260830222021 55 291 0.0 1.0 0.01 0.25 0.00 94 1008.2
20260830221516 55 291 0.0 0.0 0.01 0.25 0.00 94 1008.2
20260830221016 55 291 0.0 0.0 0.01 0.25 0.00 94 1008.2
20260830220515 56 291 0.0 0.0 0.02 0.25 0.00 94 1008.2
20260830220015 56 291 0.0 1.0 0.02 0.25 0.00 94 1008.1
20260830215514 56 291 0.0 1.0 0.02 0.25 0.25 94 1008.2
20260830215015 56 291 0.0 0.0 0.02 0.25 0.25 93 1008.2
20260830214512 56 291 0.0 0.0 0.02 0.25 0.25 93 1008.1
20260830214011 57 291 0.0 0.0 0.02 0.25 0.25 93 1008.2
20260830213511 57 291 0.0 0.0 0.01 0.24 0.24 93 1008.2
20260830213010 57 291 0.0 0.0 0.01 0.24 0.24 93 1008.1
20260830212509 57 291 0.0 2.0 0.02 0.24 0.24 93 1008.2
20260830212009 57 291 0.0 1.0 0.02 0.24 0.24 93 1008.2
20260830211513 58 291 0.0 1.0 0.02 0.24 0.24 93 1008.1
20260830211008 58 291 0.0 1.0 0.02 0.24 0.24 93 1008.1
20260830210506 58 291 0.0 4.0 0.01 0.24 0.24 93 1008.1
20260830210006 58 291 0.0 4.0 0.01 0.24 0.24 93 1008.1
20260830205510 58 215 0.0 3.0 0.01 0.24 0.24 94 1008.1
20260830205005 58 240 0.0 3.0 0.02 0.24 0.24 93 1008.1
20260830204506 58 294 0.0 3.0 0.02 0.24 0.24 93 1008.0
20260830204005 58 148 0.0 2.0 0.02 0.24 0.24 93 1008.1
20260830203505 58 214 0.0 1.0 0.02 0.24 0.24 94 1008.0
20260830203006 58 214 0.0 2.0 0.02 0.24 0.24 94 1008.0
20260830202505 58 214 0.0 2.0 0.01 0.23 0.23 94 1008.0
20260830202004 58 214 0.0 2.0 0.01 0.23 0.23 93 1007.9
20260830201505 58 214 0.0 4.0 0.01 0.23 0.23 93 1007.9
20260830201002 58 214 0.0 4.0 0.01 0.23 0.23 93 1007.9
20260830200501 58 212 0.0 4.0 0.02 0.23 0.23 93 1007.7
20260830200001 58 194 0.0 4.0 0.02 0.23 0.23 93 1007.7